Tracking 20724 objects as of 3-Jun-2020
HD Live streaming from Space Station
objects crossing your sky now

ONEWEB-0046

Track ONEWEB-0046 now!
10-day predictions
ONEWEB-0046 is classified as:


NORAD ID: 45447
Int'l Code: 2020-020Z
Perigee: 584.5 km
Apogee: 625.1 km
Inclination: 87.5 °
Period: 96.6 minutes
Semi major axis: 6975 km
RCS: Unknown
Launch date: March 21, 2020
Source: United Kingdom (UK)
Launch site: TYURATAM MISSILE AND SPACE COMPLEX (TTMTR)
aabbcc
Your satellite tracking list
Your tracking list is empty




NASA's NSSDC Master Catalog

Two Line Element Set (TLE):
1 45447U 20020Z   20155.25001157  .00052485  00000-0  53546-2 0  9991
2 45447  87.5422 114.2741 0029132  33.7978 313.1788 14.90086036 11075
Source of the keplerian elements: AFSPC